Flag for U.S.A. Weather past 2 weeks in Wilmington, Delaware, U.S.A.

Now
49 °F

Clear.


Feels Like: 49 °F
Forecast: 48 / 69 °F
Wind: No wind

Location: New Castle County Airport

Current Time: May 23, 2015 at 6:29:15 AM

Latest Report: May 23, 2015 at 5:51 AM


Visibility: 10 mi

Pressure: 30.35 "Hg

Humidity: 48%

Dew point: 30 °F

Location of WilmingtonLocation

Historic Weather in Wilmington — Graph

°F

Wilmington temperature yesterday

Maximum temperature yesterday: 75 °F (at 1:51 PM)
Minimum temperature yesterday: 48 °F (at 2:51 AM)
Average temperature yesterday: 63 °F

Past Weeks' High & Low Weather Summary

 TemperatureHumidityPressure
High85 °F (May 18, 12:51 PM)100% (May 8, 5:51 AM)30.44 "Hg (May 8, 5:51 AM)
Low47 °F (May 14, 5:51 AM)25% (May 14, 4:51 PM)29.81 "Hg (May 12, 6:51 PM)
Average66 °F70%30.11 "Hg
* Reported May 8 4:51 AM — May 23 4:51 AM, Wilmington, Weather by CustomWeather, © 2015

Note: Actual official high and low records may vary slightly from our data, if they occured in-between our weather recording intervals... More about our weather records

Advertising

Wilmington weather history for previous 24 hours

 ConditionsComfort  
Time TempWeatherWind HumidityBarometerVisibility
4:51 AM
Sat, May 23
48 °FClear.8 mph54%30.31 "Hg10 mi
3:51 AM52 °FClear.9 mph47%30.29 "Hg10 mi
2:51 AM51 °FClear.9 mph48%30.27 "Hg10 mi
1:51 AM54 °FClear.10 mph40%30.25 "Hg10 mi
12:51 AM59 °FClear.14 mph32%30.23 "Hg10 mi
11:51 PM
Fri, May 22
59 °FClear.12 mph35%30.20 "Hg10 mi
10:51 PM62 °FClear.12 mph46%30.17 "Hg10 mi
9:51 PM66 °FClear.10 mph43%30.13 "Hg10 mi
8:51 PM67 °FSunny.10 mph42%30.09 "Hg10 mi
7:51 PM70 °FSunny.13 mph37%30.06 "Hg10 mi
6:51 PM72 °FSunny.15 mph33%30.03 "Hg10 mi
5:51 PM74 °FSunny.24 mph31%30.02 "Hg10 mi
4:51 PM75 °FPassing clouds.15 mph33%30.01 "Hg10 mi
3:51 PM74 °FPartly sunny.16 mph35%30.01 "Hg10 mi
2:51 PM74 °FPartly sunny.18 mph33%30.02 "Hg10 mi
1:51 PM75 °FScattered clouds.20 mph34%30.02 "Hg10 mi
12:51 PM73 °FSunny.16 mph36%30.02 "Hg10 mi
11:51 AM71 °FSunny.20 mph36%30.03 "Hg10 mi
10:51 AM67 °FSunny.14 mph42%30.02 "Hg10 mi
9:51 AM64 °FSunny.15 mph49%30.02 "Hg10 mi
8:51 AM60 °FSunny.16 mph58%30.01 "Hg10 mi
7:51 AM56 °FSunny.13 mph67%30.00 "Hg10 mi
6:51 AM51 °FSunny.7 mph80%29.99 "Hg10 mi
Weather by CustomWeather, © 2015

See weather overviewHow to use our weather pages